Location: Croydon
(51.3762°N, 0.0982°W)
Time: 20:22:56
(UTC+00:00)

Vanguard 3 - Visible Passes

Search period start: 11 November 2019 00:00
Search period end: 21 November 2019 00:00
Orbit: 508 x 3263 km, 33.3° (Epoch: 11 November)

Date Brightness Start Highest point End Pass type
(mag) Time Alt. Az. Time Alt. Az. Time Alt. Az.
11 Nov 9.9 18:02:18 10° WSW 18:14:38 31° S 18:22:00 13° SE visible
11 Nov 9.9 20:18:12 10° WSW 20:25:52 20° SSW 20:26:34 20° SSW visible
12 Nov 10.3 16:45:57 10° SW 16:59:59 32° S 17:09:29 10° ESE visible
12 Nov 9.7 19:01:06 10° WSW 19:12:08 28° SSW 19:16:49 19° SSE visible
12 Nov 10.4 21:19:08 10° WSW 21:21:23 12° SW 21:21:23 12° SW visible
13 Nov 10.1 17:44:14 10° WSW 17:57:49 33° S 18:06:43 10° SE visible
13 Nov 9.9 20:00:36 10° WSW 20:09:13 21° SSW 20:11:39 19° SSW visible
14 Nov 10.4 16:27:45 10° SW 16:42:59 35° S 16:53:28 10° ESE visible
14 Nov 10.0 18:43:14 10° WSW 18:55:21 30° SSW 19:01:56 15° SSE visible
14 Nov 10.4 21:01:49 10° WSW 21:05:48 12° SW 21:06:31 12° SW visible
15 Nov 10.3 17:26:13 10° WSW 17:40:52 35° S 17:50:40 10° SE visible
15 Nov 10.1 19:42:56 10° WSW 19:52:25 22° SSW 19:56:51 16° S visible
16 Nov 10.2 18:25:21 10° WSW 18:38:26 31° SSW 18:47:13 10° SE visible
16 Nov 10.5 20:44:31 10° WSW 20:48:57 13° SW 20:51:48 11° SSW visible
17 Nov 10.4 17:08:15 10° WSW 17:23:48 37° SSW 17:34:28 10° SE visible
17 Nov 10.3 19:25:15 10° WSW 19:35:29 22° SW 19:42:13 12° S visible
18 Nov 10.4 18:07:29 10° WSW 18:21:23 31° SSW 18:30:58 10° SSE visible
18 Nov 10.6 20:27:16 10° WSW 20:31:59 13° SW 20:36:00 10° SSW visible
19 Nov 10.6 16:50:21 10° WSW 17:06:36 38° SSW 17:18:08 10° SE visible
19 Nov 10.5 19:07:34 10° W 19:18:26 22° SW 19:26:24 10° S visible
20 Nov 10.6 17:49:40 10° WSW 18:04:12 31° SSW 18:14:33 10° SSE visible
20 Nov 10.8 20:10:08 10° WSW 20:14:54 12° SW 20:19:01 10° SSW visible
